Flag for Mexico Weather past 2 weeks in Ojinaga, Chihuahua, Mexico

Now
82 °F

Sunny.


Feels Like: 82 °F
Forecast: 70 / 100 °F
Wind: 8 mph from Southwest

Location: Marfa Municipal Airport

Current Time: Jul 24, 2014 at 12:39:57 PM

Latest Report: Jul 24, 2014 at 11:55 AM


Visibility: 10 mi

Pressure: 30.28 "Hg

Humidity: 40%

Dew point: 55 °F

Location of OjinagaLocation

Historic Weather in Ojinaga — Graph

°F

Ojinaga temperature yesterday

Maximum temperature yesterday: 90 °F (at 2:35 PM)
Minimum temperature yesterday: 66 °F (at 7:15 AM)
Average temperature yesterday: 81 °F

Past Weeks' High & Low Weather Summary

 TemperatureHumidityPressure
High91 °F (Jul 20, 1:55 PM)100% (Jul 10, 6:35 AM)30.35 "Hg (Jul 10, 6:35 AM)
Low55 °F (Jul 11, 6:15 AM)22% (Jul 23, 2:35 PM)30.02 "Hg (Jul 16, 5:55 PM)
Average74 °F63%30.19 "Hg
* Reported Jul 9 11:35 AM — Jul 24 11:35 AM, Ojinaga, Weather by CustomWeather, © 2014

Note: Actual official high and low records may vary slightly from our data, if they occured in-between our weather recording intervals... More about our weather records

Advertising

Ojinaga weather history for previous 24 hours

 ConditionsComfort  
Time TempWeatherWind HumidityBarometerVisibility
11:35 AM
Jul 24
81 °FSunny.3 mph42%30.29 "Hg10 mi
11:15 AM81 °FSunny.6 mph42%30.29 "Hg10 mi
10:55 AM81 °FSunny.3 mph42%30.29 "Hg10 mi
10:35 AM81 °FSunny.8 mph45%30.30 "Hg10 mi
10:15 AM79 °FSunny.8 mph48%30.30 "Hg10 mi
9:55 AM79 °FSunny.6 mph48%30.30 "Hg10 mi
9:35 AM79 °FSunny.9 mph48%30.30 "Hg10 mi
9:15 AM77 °FSunny.5 mph44%30.30 "Hg10 mi
8:55 AM77 °FSunny.6 mph44%30.31 "Hg10 mi
8:35 AM75 °FSunny.No wind50%30.31 "Hg10 mi
8:15 AM75 °FSunny.No wind50%30.31 "Hg10 mi
7:55 AM73 °FSunny.No wind57%30.30 "Hg10 mi
7:35 AM70 °FSunny.No wind64%30.29 "Hg10 mi
7:15 AM66 °FSunny.No wind73%30.29 "Hg10 mi
6:55 AM63 °FClear.3 mph77%30.29 "Hg10 mi
6:35 AM61 °FClear.3 mph77%30.29 "Hg10 mi
6:15 AM61 °FClear.6 mph77%30.28 "Hg10 mi
5:55 AM61 °FClear.6 mph77%30.28 "Hg10 mi
5:35 AM61 °FClear.5 mph77%30.28 "Hg10 mi
5:15 AM61 °FClear.5 mph77%30.28 "Hg10 mi
4:55 AM61 °FClear.5 mph77%30.28 "Hg10 mi
4:35 AM61 °FClear.No wind77%30.28 "Hg10 mi
4:15 AM63 °FClear.No wind73%30.27 "Hg10 mi
3:55 AM63 °FClear.6 mph77%30.27 "Hg10 mi
3:35 AM63 °FClear.8 mph77%30.27 "Hg10 mi
3:15 AM64 °FClear.6 mph73%30.27 "Hg10 mi
2:55 AM66 °FClear.7 mph68%30.28 "Hg10 mi
2:35 AM66 °FClear.7 mph68%30.28 "Hg10 mi
2:15 AM66 °FClear.7 mph64%30.28 "Hg10 mi
1:55 AM66 °FClear.7 mph64%30.28 "Hg10 mi
1:35 AM64 °FClear.8 mph68%30.29 "Hg10 mi
1:15 AM66 °FClear.7 mph64%30.29 "Hg10 mi
12:55 AM68 °FClear.7 mph60%30.29 "Hg10 mi
12:35 AM66 °FClear.6 mph64%30.29 "Hg10 mi
12:15 AM68 °FClear.3 mph60%30.30 "Hg10 mi
11:35 PM
Jul 23
70 °FClear.5 mph57%30.31 "Hg10 mi
11:15 PM70 °FClear.7 mph57%30.31 "Hg10 mi
10:55 PM72 °FClear.8 mph53%30.31 "Hg10 mi
10:35 PM72 °FClear.9 mph53%30.30 "Hg10 mi
10:15 PM72 °FClear.9 mph53%30.30 "Hg10 mi
9:55 PM73 °FClear.9 mph50%30.30 "Hg10 mi
9:35 PM73 °FClear.8 mph47%30.28 "Hg10 mi
8:55 PM77 °FClear.9 mph42%30.27 "Hg10 mi
8:35 PM79 °FSunny.9 mph39%30.27 "Hg10 mi
8:15 PM79 °FSunny.9 mph39%30.27 "Hg10 mi
7:55 PM81 °FSunny.9 mph37%30.25 "Hg10 mi
7:35 PM82 °FSunny.13 mph35%30.24 "Hg10 mi
7:15 PM82 °FSunny.13 mph35%30.24 "Hg10 mi
6:55 PM84 °FPassing clouds.14 mph31%30.24 "Hg10 mi
6:35 PM84 °FPassing clouds.13 mph31%30.24 "Hg10 mi
6:15 PM86 °FSunny.12 mph27%30.24 "Hg10 mi
5:55 PM86 °FPassing clouds.15 mph25%30.24 "Hg10 mi
5:35 PM86 °FPassing clouds.14 mph25%30.25 "Hg10 mi
5:15 PM88 °FSunny.15 mph25%30.26 "Hg10 mi
4:55 PM88 °FPassing clouds.20 mph25%30.26 "Hg10 mi
4:35 PM88 °FScattered clouds.14 mph25%30.27 "Hg10 mi
3:55 PM88 °FPassing clouds.17 mph24%30.28 "Hg10 mi
3:35 PM88 °FPassing clouds.16 mph24%30.28 "Hg10 mi
3:15 PM88 °FSunny.16 mph25%30.29 "Hg10 mi
2:55 PM88 °FSunny.17 mph22%30.30 "Hg10 mi
2:35 PM90 °FSunny.17 mph22%30.30 "Hg10 mi
2:15 PM88 °FPassing clouds.15 mph24%30.31 "Hg10 mi
1:55 PM88 °FBroken clouds.12 mph29%30.32 "Hg10 mi
1:15 PM84 °FBroken clouds.10 mph33%30.33 "Hg10 mi
12:55 PM86 °FPassing clouds.14 mph31%30.34 "Hg10 mi
12:35 PM88 °FPassing clouds.16 mph25%30.34 "Hg10 mi
12:15 PM86 °FSunny.14 mph25%30.34 "Hg10 mi
Weather by CustomWeather, © 2014

See weather overviewHow to use our weather pages